Regional Weather Roundup
Issued by NWS

Home | Current Version | Previous Version | Graphics & Text | Print | Product List | Glossary Off
Versions: 1 2 3 4 5 6 7 8 9 10 11 12 13 14 15 16 17 18 19 20 21 22 23 24 25 26 27 28 29 30 31 32 33 34 35 36 37 38 39 40 41 42 43 44 45 46 47 48 49 50

764
ASUS43 KTOP 280059
RWRKS

WEATHER ROUNDUP FOR KANSAS
NATIONAL WEATHER SERVICE GOODLAND KS
700 PM CST MON FEB 27 2017

NOTE:  "FAIR" INDICATES FEW OR NO CLOUDS BELOW 12,000 FEET WITH NO
SIGNIFICANT WEATHER AND/OR OBSTRUCTIONS TO VISIBILITY.

KSZ001>006-013>018-027>032-041>047-280200-
NORTHWEST KANSAS

CITY           SKY/WX    TMP DP  RH WIND       PRES   REMARKS
GOODLAND       CLOUDY    47  12  24 S15       29.56S
HILL CITY      CLOUDY    51  15  23 S5        29.63S
RUSSELL        CLOUDY    54  40  59 SE13      29.65F
$$

KSZ061>065-074>080-084>089-280200-
SOUTHWEST KANSAS

CITY           SKY/WX    TMP DP  RH WIND       PRES   REMARKS
DODGE CITY     CLOUDY    55  19  24 S8        29.65S
ELKHART          N/A     63  11  13 W20         N/A
GARDEN CITY    CLOUDY    52  16  24 SE13      29.62F
GREAT BEND     CLOUDY    54  44  69 SE12      29.67S
LIBERAL        CLEAR     59  18  20 S14       29.66S
$$

KSZ066>073-081>083-090>101-280200-
SOUTHEAST KANSAS

CITY           SKY/WX    TMP DP  RH WIND       PRES   REMARKS
CHANUTE        CLOUDY    62  53  72 S13       29.80S
COFFEYVILLE    CLOUDY    64  55  72 S16G22    29.80F
HUTCHINSON     CLOUDY    54  47  77 SE9       29.70F
MEDICINE LODGE   N/A     59  34  39 S10       29.70R
NEWTON         CLOUDY    52  45  77 SE10      29.73F
PARSONS        CLOUDY    63  54  72 S9        29.81S
WICHITA INTL   MOCLDY    55  47  74 SE9       29.71F
WICHITA JABRA  CLOUDY    54  46  74 SE8       29.72F
WINFIELD       CLOUDY    62  53  72 S10       29.76R
$$

KSZ007>012-019>026-033>040-048>060-102>105-280200-
NORTHEAST KANSAS

CITY           SKY/WX    TMP DP  RH WIND       PRES   REMARKS
CONCORDIA      CLOUDY    50  38  63 S6        29.69R
EMPORIA        PTCLDY    56  46  69 S13       29.76S
LAWRENCE       CLOUDY    61  49  64 S13       29.77S
MANHATTAN      CLOUDY    58  45  62 S9        29.74R
OLATHE IND     CLEAR     56  47  71 S7        29.79S
OLATHE EXE     PTCLDY    56  44  64 S7        29.79S
SALINA         CLOUDY    56  44  64 SE9       29.70F
TOPEKA BILLARD CLOUDY    59  48  67 S7        29.76S
TOPEKA FORBES  CLEAR     57  46  66 S6        29.77R
$$




USA.gov is the U.S. government's official web portal to all federal, state and local government web resources and services.